Content
SEND FEEDBACK

Daily
Averages
Monthly
Summary
United States of America

ASATDAS, GUAM


Home > North America > United States > Guam
Elevation: 612 feet     Latitude: 13 35N     Longitude: 144 56E

WEATHER
 
SELECT A DAY
Number of Records: 208,997;   Date Range: 1/1/95 - 7/26/14
 
SHARE

PRINT THIS DATA

[ ← Previous Day ]
WEATHER ALMANAC - JANUARY 11, 2013
[ Next Day → ]
[ °C ]   °F
Weather ElementAverageHighLow
Temperature81.2 °F87.1 °F (12:54 pm)78.1 °F (3:54 am)
Dewpoint72.6 °F73.9 °F (7:54 pm)71.1 °F (9:54 am)
Humidity75.3 %84 % (3:54 am)63 % (10:54 am)
Barometer29.86 in29.91 in (8:54 am)29.82 in (2:54 am)
Wind Speed13.9 mph20.7 mph (9:54 am)
Wind Gust27.6 mph (12:54 pm)
Weather ElementAverage
Visibility10 mi
Wind DirectionENE (77 °)

Weather ElementTotal
Precipitation0.01 in
Cooling Degree Days17.6 (Base 65)
Growing Degree Days32.6 (Base 50)
Averaged from 23 records on January 11, 2013
WEATHER CONDITIONS BREAKOUT
WIND DIRECTION BREAKOUT
WEATHER BY HOUR - JANUARY 11, 2013
[ °C ]   °F
Local TimeTemperatureDewpointHumidityBarometerVisibilityWind DirectionWind SpeedGust SpeedPrecipitationEventsConditions
1:54 AM79.0 °F73.0 °F82 %29.83 in10.0 miEast (90°)12.7 mphPartly Cloudy
2:54 AM79.0 °F73.0 °F82 %29.82 in10.0 miEast (90°)10.4 mphClear
3:54 AM78.1 °F73.0 °F84 %29.82 in10.0 miEast (80°)11.5 mphPartly Cloudy
4:54 AM79.0 °F73.0 °F82 %29.82 in10.0 miEast (90°)11.5 mphClear
5:54 AM78.1 °F72.0 °F81 %29.84 in10.0 miEast (80°)12.7 mph18.4 mphClear
6:54 AM79.0 °F72.0 °F79 %29.86 in10.0 miENE (70°)12.7 mphClear
7:54 AM80.1 °F73.0 °F79 %29.89 in10.0 miENE (70°)13.8 mphScattered Clouds
8:54 AM82.0 °F72.0 °F71 %29.91 in10.0 miENE (70°)13.8 mph21.9 mphPartly Cloudy
9:54 AM82.9 °F71.1 °F67 %29.90 in10.0 miENE (70°)20.7 mph25.3 mphPartly Cloudy
10:54 AM84.9 °F71.1 °F63 %29.90 in10.0 miEast (80°)18.4 mph25.3 mphClear
11:54 AM86.0 °F72.0 °F63 %29.87 in10.0 miENE (60°)20.7 mph26.5 mphPartly Cloudy
12:54 PM87.1 °F73.0 °F63 %29.85 in10.0 miEast (90°)18.4 mph27.6 mphScattered Clouds
1:54 PM84.9 °F73.0 °F67 %29.83 in10.0 miEast (100°)17.3 mph25.3 mphScattered Clouds
2:54 PM84.9 °F73.0 °F67 %29.82 in10.0 miEast (80°)17.3 mph24.2 mphScattered Clouds
3:54 PM84.0 °F73.0 °F69 %29.83 in10.0 miENE (70°)16.1 mphScattered Clouds
4:54 PM82.9 °F73.0 °F72 %29.85 in10.0 miEast (80°)13.8 mph19.6 mphScattered Clouds
5:54 PM81.0 °F73.0 °F77 %29.86 in10.0 miENE (70°)12.7 mphScattered Clouds
6:54 PM80.1 °F72.0 °F76 %29.87 in10.0 miENE (70°)8.1 mphScattered Clouds
7:54 PM79.0 °F73.9 °F84 %29.88 in10.0 miENE (60°)11.5 mph0.00 inScattered Clouds
8:54 PM79.0 °F73.0 °F82 %29.89 in10.0 miENE (70°)12.7 mph0.00 inScattered Clouds
9:54 PM79.0 °F72.0 °F79 %29.90 in10.0 miEast (80°)12.7 mphScattered Clouds
10:54 PM80.1 °F73.0 °F79 %29.91 in10.0 miENE (70°)9.2 mphScattered Clouds
11:54 PM78.1 °F73.0 °F84 %29.91 in10.0 miEast (80°)10.4 mph0.01 inScattered Clouds
Hourly data recorded from PGUM, located miles away from Asatdas, Guam







STORIES FROM OUR PARTNERS